This is the latest recevied weather packets stored in our database for station/object WX4LTG. If no packets are shown the sender has not sent any weather packets the latest 10 day(s).
| Time | Temp. | Humidity | Pressure | Rain* | Wind** | Luminosity | Snow |
|---|---|---|---|---|---|---|---|
| 1777755036 | 32.22° C | 19% | 1011.7 hPa | 0 mm | - | 158 W/m² | - |
| 1777754732 | 32.22° C | 17% | 1012 hPa | 0 mm | - | 212 W/m² | - |
| 1777754430 | 33.89° C | 18% | 1011.7 hPa | 0 mm | - | 788 W/m² | - |
| 1777754127 | 32.78° C | 18% | 1011.9 hPa | 0 mm | - | 774 W/m² | - |
| 1777753824 | 32.78° C | 19% | 1011.9 hPa | 0 mm | - | 769 W/m² | - |
| 1777753520 | 32.22° C | 20% | 1012.3 hPa | 0 mm | - | 787 W/m² | - |
| 1777753219 | 32.22° C | 20% | 1012.1 hPa | 0 mm | - | 778 W/m² | - |
| 1777752914 | 32.78° C | 19% | 1012 hPa | 0 mm | - | 820 W/m² | - |
| 1777752611 | 31.67° C | 21% | 1012.4 hPa | 0 mm | - | 829 W/m² | - |
| 1777752307 | 32.22° C | 21% | 1012.3 hPa | 0 mm | - | 196 W/m² | - |
| 1777752004 | 31.67° C | 21% | 1012.2 hPa | 0 mm | - | 798 W/m² | - |
| 1777751702 | 32.22° C | 20% | 1012.4 hPa | 0 mm | - | 788 W/m² | - |
| 1777751398 | 31.67° C | 21% | 1012.7 hPa | 0 mm | - | 799 W/m² | - |
| 1777751095 | 32.22° C | 20% | 1012.7 hPa | 0 mm | - | 794 W/m² | - |
| 1777750790 | 31.67° C | 22% | 1012.6 hPa | 0 mm | - | 788 W/m² | - |
| 1777750488 | 31.67° C | 21% | 1012.8 hPa | 0 mm | - | 787 W/m² | - |
| 1777750184 | 32.22° C | 21% | 1012.8 hPa | 0 mm | - | 768 W/m² | - |
| 1777749881 | 30.56° C | 23% | 1012.8 hPa | 0 mm | - | 756 W/m² | - |
| 1777749578 | 31.67° C | 22% | 1013 hPa | 0 mm | - | 749 W/m² | - |
| 1777749275 | 31.67° C | 22% | 1013.1 hPa | 0 mm | - | 756 W/m² | - |
| 1777748973 | 31.67° C | 22% | 1013 hPa | 0 mm | - | 756 W/m² | - |
| 1777748670 | 31.11° C | 22% | 1013.1 hPa | 0 mm | - | 780 W/m² | - |
| 1777748366 | 31.11° C | 22% | 1013.3 hPa | 0 mm | - | 746 W/m² | - |
| 1777748061 | 31.11° C | 22% | 1013.4 hPa | 0 mm | - | 740 W/m² | - |
| 1777747759 | 31.11° C | 22% | 1013.5 hPa | 0 mm | - | 735 W/m² | - |
* Rain latest hour (hover to see other rain measurements)
** Current wind speed in m/s (hover to see current wind gust speed)